Rensselaer, IN

11:02 AM CDT on June 29, 2017 (GMT -0500)
Jasper County

Weather History for KRZL - August, 2012

Change the Weather History Date:

Tuesday, August 21, 2012

  Actual Average (KIKK) Record (KIKK)
Temperature  
Mean Temperature 62 °F -  
Max Temperature 77 °F 82 °F 96 °F (1983)
Min Temperature 46 °F 58 °F 47 °F (2012)
Degree Days  
Heating Degree Days 4    
Growing Degree Days 12 (Base 50)    
Moisture  
Dew Point 52 °F    
Average Humidity 74    
Maximum Humidity 100    
Minimum Humidity 36    
Precipitation  
Precipitation 0.00 in - - ()
Sea Level Pressure  
Sea Level Pressure 30.08 in    
Wind  
Wind Speed 1 mph (NNE)    
Max Wind Speed 6 mph    
Max Gust Speed -    
Visibility 7 miles    
Events Fog    
Averages and records for this station are not official NWS values.
T = Trace of Precipitation, MM = Missing Value Source: NWS Daily Summary

Daily Weather History Graph

Daily Weather History Graph

Search for Another Location

Airport or City:

Trip Planner

Search our weather history database for the weather conditions in past years. The results will help you decide how hot, cold, wet, or windy it might be!

Date:

Astronomy

Aug. 21, 2012 Rise Set
Actual Time 6:05 AM CDT 7:37 PM CDT
Civil Twilight 5:36 AM CDT 8:06 PM CDT
Nautical Twilight 5:01 AM CDT 8:41 PM CDT
Astronomical Twilight 4:23 AM CDT 9:18 PM CDT
Moon 10:37 AM CDT (8/21) 9:34 PM CDT (8/21)
Length of Visible Light 14h 30m
Length of Day
13h 32m
Waxing Crescent, 19% of the Moon is Illuminated
Aug 21
Waxing Crescent
Aug 24
First Quarter
Aug 31
Full
Sep 8
Last Quarter
Sep 15
New

Hourly Weather History & Observations

Time (CDT) Temp. Dew Point Humidity Pressure Visibility Wind Dir Wind Speed Gust Speed Precip Events Conditions
12:15 AM 53.6 °F 53.6 °F 100% 30.01 in 7.0 mi Calm Calm - N/A   Clear
12:35 AM 51.8 °F 51.8 °F 100% 30.02 in 5.0 mi NNW 5.8 mph - N/A   Clear
1:15 AM 51.8 °F 51.8 °F 100% 30.02 in 4.0 mi Calm Calm - N/A   Clear
1:35 AM 51.8 °F 51.8 °F 100% 30.03 in 5.0 mi ENE 3.5 mph - N/A   Clear
1:55 AM 51.8 °F 50.0 °F 94% 30.03 in 2.5 mi Calm Calm - N/A   Clear
2:15 AM 51.8 °F 50.0 °F 94% 30.03 in 2.5 mi Calm Calm - N/A   Clear
2:35 AM 50.0 °F 50.0 °F 100% 30.03 in 2.5 mi Calm Calm - N/A   Clear
2:55 AM 50.0 °F 50.0 °F 100% 30.03 in 1.8 mi Calm Calm - N/A   Mist
3:15 AM 48.2 °F 48.2 °F 100% 30.04 in 1.8 mi Calm Calm - N/A   Mist
3:35 AM 48.2 °F 48.2 °F 100% 30.04 in 0.2 mi Calm Calm - N/A Fog Fog
3:55 AM 48.2 °F 46.4 °F 93% 30.03 in 0.2 mi Calm Calm - N/A Fog Fog
4:15 AM 48.2 °F 48.2 °F 100% 30.04 in 1.5 mi Calm Calm - N/A   Mist
4:35 AM 48.2 °F 46.4 °F 93% 30.04 in 0.8 mi Calm Calm - N/A   Mist
4:55 AM 48.2 °F 46.4 °F 93% 30.04 in 0.5 mi Calm Calm - N/A Fog Fog
5:15 AM 46.4 °F 46.4 °F 100% 30.05 in 0.2 mi Calm Calm - N/A Fog Fog
5:35 AM 46.4 °F 46.4 °F 100% 30.05 in 3.0 mi Calm Calm - N/A   Clear
5:55 AM 46.4 °F 46.4 °F 100% 30.06 in 1.2 mi Calm Calm - N/A   Mist
6:15 AM 46.4 °F 46.4 °F 100% 30.06 in 2.0 mi Calm Calm - N/A   Clear
6:35 AM 46.4 °F 46.4 °F 100% 30.07 in 0.2 mi Calm Calm - N/A Fog Fog
6:55 AM 50.0 °F 50.0 °F 100% 30.08 in 1.2 mi Calm Calm - N/A   Scattered Clouds
7:15 AM 51.8 °F 51.8 °F 100% 30.08 in 2.0 mi Calm Calm - N/A   Clear
7:35 AM 53.6 °F 51.8 °F 94% 30.09 in 3.0 mi Calm Calm - N/A   Clear
7:55 AM 53.6 °F 53.6 °F 100% 30.09 in 4.0 mi Calm Calm - N/A   Clear
8:15 AM 55.4 °F 55.4 °F 100% 30.10 in 5.0 mi Calm Calm - N/A   Clear
8:35 AM 59.0 °F 57.2 °F 94% 30.10 in 7.0 mi Calm Calm - N/A   Clear
8:55 AM 60.8 °F 59.0 °F 94% 30.10 in 10.0 mi Calm Calm - N/A   Clear
9:15 AM 62.6 °F 59.0 °F 88% 30.10 in 10.0 mi Calm Calm - N/A   Clear
9:35 AM 66.2 °F 59.0 °F 78% 30.10 in 10.0 mi Calm Calm - N/A   Clear
9:55 AM 68.0 °F 59.0 °F 73% 30.10 in 10.0 mi Calm Calm - N/A   Clear
10:15 AM 69.8 °F 59.0 °F 68% 30.10 in 10.0 mi Calm Calm - N/A   Clear
10:35 AM 69.8 °F 55.4 °F 60% 30.11 in 10.0 mi Calm Calm - N/A   Clear
10:55 AM 71.6 °F 55.4 °F 57% 30.10 in 10.0 mi NE 3.5 mph - N/A   Clear
11:15 AM 71.6 °F 55.4 °F 57% 30.11 in 10.0 mi North 4.6 mph - N/A   Clear
11:35 AM 71.6 °F 53.6 °F 53% 30.10 in 10.0 mi ENE 4.6 mph - N/A   Clear
11:55 AM 73.4 °F 51.8 °F 47% 30.10 in 10.0 mi Calm Calm - N/A   Clear
12:15 PM 71.6 °F 50.0 °F 46% 30.10 in 10.0 mi Calm Calm - N/A   Clear
12:35 PM 73.4 °F 51.8 °F 47% 30.10 in 10.0 mi Calm Calm - N/A   Clear
12:55 PM 73.4 °F 50.0 °F 44% 30.10 in 10.0 mi North 4.6 mph - N/A   Clear
1:15 PM 73.4 °F 50.0 °F 44% 30.09 in 10.0 mi Calm Calm - N/A   Scattered Clouds
1:35 PM 75.2 °F 50.0 °F 41% 30.09 in 10.0 mi Calm Calm - N/A   Scattered Clouds
1:55 PM 75.2 °F 51.8 °F 44% 30.09 in 10.0 mi Calm Calm - N/A   Clear
2:15 PM 77.0 °F 50.0 °F 39% 30.08 in 10.0 mi Calm Calm - N/A   Scattered Clouds
2:35 PM 77.0 °F 50.0 °F 39% 30.08 in 10.0 mi Calm Calm - N/A   Scattered Clouds
2:55 PM 73.4 °F 48.2 °F 41% 30.07 in 10.0 mi Calm Calm - N/A   Clear
3:15 PM 75.2 °F 48.2 °F 38% 30.07 in 10.0 mi WNW 3.5 mph - N/A   Clear
3:35 PM 77.0 °F 48.2 °F 36% 30.07 in 10.0 mi Calm Calm - N/A   Clear
3:55 PM 77.0 °F 50.0 °F 39% 30.07 in 10.0 mi NE 3.5 mph - N/A   Mostly Cloudy
4:15 PM 73.4 °F 53.6 °F 50% 30.07 in 10.0 mi North 3.5 mph - N/A   Mostly Cloudy
4:55 PM 77.0 °F 48.2 °F 36% 30.08 in 10.0 mi North 5.8 mph - N/A   Clear
5:15 PM 77.0 °F 50.0 °F 39% 30.08 in 10.0 mi NNW 4.6 mph - N/A   Clear
5:35 PM 75.2 °F 50.0 °F 41% 30.08 in 10.0 mi NNE 4.6 mph - N/A   Clear
5:55 PM 75.2 °F 50.0 °F 41% 30.08 in 10.0 mi NNE 3.5 mph - N/A   Clear
6:15 PM 73.4 °F 51.8 °F 47% 30.08 in 10.0 mi North 3.5 mph - N/A   Clear
6:35 PM 73.4 °F 53.6 °F 50% 30.08 in 10.0 mi North 4.6 mph - N/A   Clear
6:55 PM 71.6 °F 53.6 °F 53% 30.09 in 10.0 mi North 4.6 mph - N/A   Clear
7:15 PM 69.8 °F 51.8 °F 53% 30.09 in 10.0 mi North 4.6 mph - N/A   Clear
7:35 PM 68.0 °F 53.6 °F 60% 30.09 in 10.0 mi North 4.6 mph - N/A   Clear
7:55 PM 66.2 °F 53.6 °F 64% 30.09 in 10.0 mi North 4.6 mph - N/A   Clear
8:15 PM 66.2 °F 51.8 °F 60% 30.09 in 10.0 mi NNE 5.8 mph - N/A   Clear
8:35 PM 64.4 °F 53.6 °F 68% 30.10 in 10.0 mi NNE 5.8 mph - N/A   Clear
8:55 PM 60.8 °F 55.4 °F 82% 30.11 in 10.0 mi NNE 3.5 mph - N/A   Clear
9:15 PM 59.0 °F 55.4 °F 88% 30.11 in 10.0 mi NE 3.5 mph - N/A   Clear
9:35 PM 59.0 °F 55.4 °F 88% 30.11 in 10.0 mi NE 3.5 mph - N/A   Clear
9:55 PM 59.0 °F 55.4 °F 88% 30.11 in 10.0 mi Calm Calm - N/A   Clear
10:15 PM 59.0 °F 53.6 °F 82% 30.11 in 10.0 mi Calm Calm - N/A   Clear
10:35 PM 55.4 °F 53.6 °F 94% 30.11 in 10.0 mi Calm Calm - N/A   Clear
10:55 PM 55.4 °F 53.6 °F 94% 30.11 in 10.0 mi Calm Calm - N/A   Clear
11:15 PM 55.4 °F 53.6 °F 94% 30.11 in 10.0 mi Calm Calm - N/A   Clear
11:55 PM 55.4 °F 53.6 °F 94% 30.11 in 10.0 mi Calm Calm - N/A   Clear